www.pogodaiklimat.ru

Погода и климат >> Архив погоды >> Туркменистан >> Ербент


АРХИВ ПОГОДЫ в Ербенте

Время (UTC), дата Ветер
(напр.,м/с)
 
Видим.   Явления Облачность Т
(С)
Тd
(С)
f
(%)
Тe
(С)
Тes
(С)
Комфортность P
(гПа)
Po
(гПа)
Тmin
(С)
Tmax
(С)
R
(мм)
R24
(мм)
S
(см)
09 12.08 З 2 20 км ясно +33.2 +12.0 28 +33 +51 опасность
солнечного
удара
1012.6 932.7
12 12.08 З 6 10 км ясно +34.6 +9.5 22 +34 +36 очень
жарко
1011.2 1001.3
15 12.08 З 2 20 км ясно +32.2 +5.6 19 +30 +30 жарко 1010.7 1000.8 +35.1
18 12.08 З 2 20 км ясно +27.6 +3.8 22 +26 +26 жарко 1011.9 1001.8 +35.1
21 12.08 СЗ 2 20 км ясно +24.5 +5.1 29 +24 +24 комфорт 1012.4 1002.2
00 13.08 СЗ 2 20 км ясно +21.6 +7.0 39 +22 +22 комфорт 1013.4 1003.0
03 13.08 З 2 20 км ясно +21.6 +8.4 43 +23 +25 комфорт 1014.6 1004.2 +20.5
06 13.08 З 4 20 км ясно +26.4 +9.9 35 +27 +36 жарко 1015.4 1005.7 +20.5
09 13.08 СЗ 3 20 км ясно +29.4 +8.9 28 +29 +43 жарко 1014.3 1004.2
12 13.08 СЗ 5 20 км ясно +30.8 +6.7 22 +29 +33 жарко 1013.4 1003.3 +31.4
15 13.08 С 4 20 км ясно +27.8 +5.5 24 +27 +27 жарко 1014.6 1004.4 +31.4
18 13.08 штиль 0 20 км ясно +24.6 +4.6 27 +24 +24 комфорт 1014.1 1003.9 +31.4
21 13.08 штиль 0 20 км ясно +21.8 +3.8 31 +22 +22 комфорт 1014.2 1003.9
00 14.08 штиль 0 20 км ясно +20.0 +4.5 36 +20 +20 1013.4 1003.0
03 14.08 штиль 0 20 км ясно +20.4 +8.4 46 +21 +25 комфорт 1014.4 1004.1 +19.4
06 14.08 З 4 20 км ясно +25.8 +8.4 33 +26 +35 жарко 1015.4 1005.1 +19.4
09 14.08 З 4 20 км ясно +28.2 +6.8 26 +27 +39 жарко 1014.7 1004.6
12 14.08 СЗ 4 20 км ясно +29.2 +2.1 18 +27 +31 жарко 1013.7 1003.6
15 14.08 СЗ 2 20 км ясно +26.8 +0.2 18 +25 +25 комфорт 1013.9 1003.7 +29.7
18 14.08 штиль 0 20 км ясно +21.9 -0.9 22 +21 +21 комфорт 1015.2 1004.8 +29.7
21 14.08 ЮЗ 2 20 км ясно +19.0 -0.9 26 +20 +20 1014.9 1004.4
00 15.08 З 2 20 км ясно +17.0 -0.7 30 +17 +17 1015.2 1004.7
03 15.08 штиль 0 20 км ясно +18.4 +0.4 30 +18 +22 1015.6 1005.1 +16.3
06 15.08 З 2 20 км ясно +27.0 +4.6 24 +26 +40 жарко 1015.5 1005.3 +16.3
09 15.08 СЗ 2 20 км ясно +31.3 +3.4 17 +29 +46 жарко 1014.2 1004.1
12 15.08 З 2 20 км ясно +32.4 +2.9 15 +30 +36 жарко 1011.0 1002.1
15 15.08 С 2 20 км ясно +30.2 +4.0 19 +28 +28 жарко 1012.0 1001.9 +32.6
18 15.08 штиль 0 20 км ясно +25.2 +4.1 26 +25 +25 комфорт 1013.1 1002.8 +32.6
21 15.08 С 2 20 км ясно +22.8 +13.4 55 +26 +26 жарко 1013.3 1003.0
00 16.08 СВ 2 20 км ясно +19.0 +3.6 36 +20 +20 1013.8 1003.3
03 16.08 СВ 2 20 км ясно +19.4 +6.4 43 +21 +23 комфорт 1014.8 1004.3 +17.5
06 16.08 В 2 20 км ясно +27.0 +9.3 33 +27 +41 жарко 1015.0 1004.9 +20.3
09 16.08 СВ 2 20 км ясно +31.7 +10.3 27 +31 +48 жарко 1013.9 1003.9
12 16.08 СВ 2 20 км ясно +32.8 +8.6 22 +31 +38 жарко 1002.1 1002.2
15 16.08 В 2 20 км ясно +31.3 +7.4 23 +30 +30 жарко 1011.5 1001.5 +33.2
18 16.08 В 4 20 км ясно +27.8 +6.7 26 +27 +27 жарко 1012.2 1002.1 +33.2
21 16.08 В 4 20 км ясно +24.7 +3.6 25 +24 +24 комфорт 1012.4 1002.2
00 17.08 В 2 20 км ясно +21.4 +2.5 29 +21 +21 комфорт 1011.9 1001.6
03 17.08 В 2 20 км ясно +21.8 +3.6 30 +22 +24 комфорт 1012.4 1002.1 +20.0
06 17.08 В 5 20 км ясно +30.0 +7.1 24 +29 +36 жарко 1012.4 1002.3 +20.0
09 17.08 В 5 20 км ясно +33.3 +4.8 17 +31 +40 жарко 1010.9 1001.0
12 17.08 В 4 20 км ясно +34.8 +5.0 16 +32 +36 жарко 1009.6 999.7
15 17.08 В 3 20 км ясно +33.4 +4.0 16 +31 +31 жарко 1009.9 1000.0 +35.3
18 17.08 СВ 2 20 км ясно +27.8 +5.1 23 +27 +27 жарко 1010.3 1000.2 +35.3
21 17.08 СВ 2 20 км ясно +25.2 +4.1 26 +25 +25 комфорт 1011.0 1000.8
00 18.08 В 2 20 км ясно +22.2 +4.0 30 +22 +22 комфорт 1011.0 1000.7
03 18.08 В 2 20 км ясно +22.3 +5.6 34 +23 +25 комфорт 1012.2 1001.9 +21.4
06 18.08 В 4 20 км ясно +32.2 +7.0 21 +31 +40 жарко 1012.8 1002.8 +21.4
09 18.08 В 4 20 км ясно +35.0 +6.1 17 +33 +44 жарко 1012.2 1002.3
12 18.08 В 4 20 км ясно +36.0 +5.1 15 +33 +38 жарко 1011.7 1001.8
15 18.08 В 3 20 км ясно +34.8 +4.0 15 +32 +32 жарко 1011.5 1001.6 +36.5
18 18.08 В 3 20 км ясно +29.8 +2.7 18 +28 +28 жарко 1013.5 1003.4 +36.5
21 18.08 В 2 20 км ясно +25.8 +1.1 20 +24 +24 комфорт 1013.8 1003.5
00 19.08 В 3 20 км ясно +24.0 +2.3 24 +23 +23 комфорт 1013.7 1003.4
03 19.08 В 2 20 км ясно +24.0 +4.3 28 +24 +26 комфорт 1015.1 1004.8 +22.6
06 19.08 В 4 20 км ясно +34.6 +6.2 17 +32 +41 жарко 1015.3 1005.4 +22.6

 

Местоположение метеостанции Ербент (Ахалский велаят, Туркменистан): широта 39.32 долгота 58.60 высота над уровнем моря 87 м.

В архиве по умолчанию представлена погода в Ербенте за последнюю неделю. Архивные данные за месяц целиком и за предыдущие месяцы, начиная с января 2011 года, Вы можете получить, выбрав интересующий диапазон дат из раскрывающегося списка и нажав кнопку "Ввод!".


*Определитесь, кто Вы:
робот инопланетянин человек

Внимание! Время в таблицах - всемирное. Для получения местного времени необходимо прибавить поправку, которая равна 5 ч.

Смотрите также архив погоды в соседних городах и на ближайших метеорологических станциях:

Погода в Дервезе (Дашогузский велаят, Туркменистан) (96 км)
Погода в Акмолле (Ахалский велаят, Туркменистан) (119 км)
Погода в Бахарлы (Ахалский велаят, Туркменистан) (142 км)
Погода в Ашхабаде (город Ашхабад, Туркменистан) (157 км)
Погода в Unknown (Туркменистан) (202 км)
Погода в Екеже (Дашогузский велаят, Туркменистан) (203 км)
Погода в Сердаре (Балканский велаят, Туркменистан) (204 км)
Погода в Гаррыгале (Балканский велаят, Туркменистан) (222 км)
Погода в Боджнурде (Иран) (234 км)
Погода в Каке (Ахалский велаят, Туркменистан) (237 км)

Пояснения к столбцам:

Ветер - указаны скорость ветра в м/с - средняя за 10 мин, порывы в срок и между сроками (в фигурных скобках) и направление, откуда дует ветер: С - северный, СВ - северо-восточный, В - восточный, ЮВ - юго-восточный, Ю - южный, ЮЗ - юго-западный, З - западный, СЗ - северо-западный.
Видимость - горизонтальная дальность видимости в метрах или километрах. При видимости от 1 до 10 км при отсутствии осадков обычно наблюдается дымка, при ухудшении видимости до 1 км и менее - туман. В сухую погоду видимость может ухудшаться дымом, пылью или мглою.
Явления - указаны атмосферные явления, наблюдавшиеся в срок или в последний час перед сроком; фигурными скобками обозначены явления, наблюдавшиеся между сроками (за 1-3 часа до срока); квадратными скобками обозначены град или гололедные отложения с указанием их диаметра в мм.
Облачность - указаны через наклонную черту общая и нижняя облачность в баллах и высота нижней границы облаков в метрах; квадратными скобками обозначены формы облаков: Ci - перистые, Cs - перисто-слоистые, Cc - перисто-кучевые, Ac - высококучевые, As - высокослоистые, Sc - слоисто-кучевые, Ns - слоисто-дождевые, Cu - кучевые, Cb - кучево-дождевые. Подробнее классификацию облаков см. в Атласе облаков (PDF).
T - Температура воздуха - температура, измеренная на высоте 2 м над землей.
Td - Температура точки росы - температура, при понижении до которой содержащийся в воздухе водяной пар достигнет насыщения.
f - Относительная влажность воздуха - влажноcть воздуха, измеренная на высоте 2 м над землей.
Te - Эффективная температура - температура, которую ощущает одетый по сезону человек в тени. Характеристика душности погоды. При расчете учитывается влияние влажности воздуха и скорости ветра на теплоощущения человека.
Tes - Эффективная температура на солнце - температура, которую ощущает человек, с поправкой на солнечный нагрев. Характеристика знойности погоды. Зависит от высоты солнца над горизонтом, облачности и скорости ветра. Ночью, в пасмурную погоду, а также при ветре 12 м/с и более поправка равна нулю.
P - Атмосферное давление - приведенное к уровню моря атмосферное давление.
Po - Атмосферное давление - измеренное на уровне метеостанции атмосферное давление.
Tmin - Минимальная температура - минимум температуры воздуха на высоте 2 м над землей.
Tmax - Максимальная температура - максимум температуры воздуха на высоте 2 м над землей.
R - Количество осадков - Количество выпавших осадков за период времени, мм. При наведении курсора мыши на число - период времени, за который выпало указанное количество осадков.
R24 - Количество осадков - Количество выпавших осадков за 24 часа, мм.
S - Снежный покров - Высота снежного покрова, см. При наведении курсора мыши на число - состояние снежного покрова и степень покрытия местности в баллах.